Regional Weather Roundup
Issued by NWS

Home | Current Version | Previous Version | Graphics & Text | Print | Product List | Glossary On
Versions: 1 2 3 4 5 6 7 8 9 10 11 12 13 14 15 16 17 18 19 20 21 22 23 24 25 26 27 28 29 30 31 32 33 34 35 36 37 38 39 40 41 42 43 44 45 46 47 48 49 50
000
ASUS45 KABQ 290810
RWRNM
WEATHER ROUNDUP FOR NEW MEXICO
NATIONAL WEATHER SERVICE ALBUQUERQUE NM
200 AM MDT FRI AUG 29 2014

NOTE: "FAIR" MEANS FEW OR NO CLOUDS BELOW 12,000 FEET AGL WITH NO
       SIGNIFICANT WEATHER OR OBSTRUCTIONS TO VISION.

      THIS PRODUCT IS RELEASED AS TWO VERSIONS.  ONE VERSION NEAR
      THE TOP OF THE HOUR CONTAINING PRELIMINARY DATA FROM ALBUQUERQUE
      AND OTHER STATIONS.  A FINAL VERSION WITH ADDITIONAL DATA IS
      ISSUED ABOUT 10 MINUTES AFTER THE HOUR.

NMZ501-503-504-510>518-290900-
NORTHWEST PLATEAU/NORTHCENTRAL MOUNTAINS

CITY           SKY/WX    TMP DP  RH WIND       PRES   REMARKS
FARMINGTON     CLEAR     59  41  51 CALM      30.16S
LOS ALAMOS     CLOUDY    63  38  39 N9        30.27S
SANTA FE       PTCLDY    58  45  62 E6        30.20S
ANGEL FIRE     FAIR      41  37  87 CALM      30.35F

$$
NMZ402-403-502-505>509-290900-
WESTCENTRAL MOUNTAINS/SOUTHWEST MOUNTAINS

CITY           SKY/WX    TMP DP  RH WIND       PRES   REMARKS
GALLUP         CLEAR     49  33  54 CALM      30.25S
SILVER CITY    CLEAR     64  41  42 NW10      30.14S

$$
NMZ407-409-411-412-290900-
SOUTHERN DESERTS

CITY           SKY/WX    TMP DP  RH WIND       PRES   REMARKS
LORDSBURG      FAIR      68  45  42 W5        30.04F
DEMING         CLEAR     69  45  41 W6        30.03F
LAS CRUCES     CLEAR     73  41  31 SW7       30.04F
HOLLOMAN AFB   CLEAR     66  48  51 NW6       30.01S
ALAMOGORDO     CLEAR     64  46  52 CALM      30.03S
T OR C         CLEAR     68  46  45 NW7       30.09S

$$
NMZ519>523-290900-
CENTRAL VALLEYS/CENTRAL HIGHLANDS

CITY           SKY/WX    TMP DP  RH WIND       PRES   REMARKS
ALBUQUERQUE    CLEAR     69  43  38 NW8       30.14F
DOUBLE EAGLE   CLEAR     64  43  45 NW8       30.18S
MORIARTY ARPT  FAIR      53  46  76 E6        30.21F
CLINES CORNERS CLEAR     54  41  61 E8        30.24F
BELEN          FAIR      59  44  57 NW5       30.14S
SOCORRO        FAIR      64  50  59 NW7       30.11S

$$
NMZ524>526-539-540-290900-
SOUTHCENTRAL MOUNTAINS

CITY           SKY/WX    TMP DP  RH WIND       PRES   REMARKS
RUIDOSO        CLEAR     61  41  48 W5        30.23F

$$
NMZ527>531-290900-
NORTHEAST HIGHLANDS/NORTHEAST PLAINS

CITY           SKY/WX    TMP DP  RH WIND       PRES   REMARKS
LAS VEGAS      PTCLDY    52  42  69 N6        30.24F
RATON          CLEAR     48  44  86 VRB3      30.20F
CLAYTON        CLEAR     59  48  67 NW13      30.09F

$$
NMZ532>537-290900-
EASTCENTRAL PLAINS

CITY           SKY/WX    TMP DP  RH WIND       PRES   REMARKS
TUCUMCARI      CLEAR     66  50  56 NE9       30.06F
CANNON AFB     CLEAR     64  61  91 NE13      30.04F
CLOVIS AIRPORT   N/A     64  57  77 NE12      30.07R

$$
NMZ028-029-538-290900-
SOUTHEAST PLAINS

CITY           SKY/WX    TMP DP  RH WIND       PRES   REMARKS
ROSWELL        CLEAR     71  48  43 NW12      29.98S
CARLSBAD       CLEAR     71  50  47 W7        29.93F
HOBBS          PTCLDY    70  59  68 E10       29.97F


$$



USA.gov is the U.S. government's official web portal to all federal, state and local government web resources and services.